This is the latest recevied weather packets stored in our database for station/object WP4NYS-13. If no packets are shown the sender has not sent any weather packets the latest 10 day(s).
| Time | Temp. | Humidity | Pressure | Rain* | Wind** | Luminosity | Snow |
|---|---|---|---|---|---|---|---|
| 1777080543 | 22.22° C | 67% | 1013.2 hPa | 0 mm | - | - | - |
| 1777080238 | 22.78° C | 66% | 1013.2 hPa | 0 mm | - | - | - |
| 1777079932 | 22.78° C | 66% | 1012.9 hPa | 0 mm | - | - | - |
| 1777079631 | 22.78° C | 65% | 1012.9 hPa | 0 mm | - | - | - |
| 1777079327 | 22.78° C | 65% | 1012.9 hPa | 0 mm | - | - | - |
| 1777079023 | 22.78° C | 64% | 1013 hPa | 0 mm | - | - | - |
| 1777078720 | 23.33° C | 63% | 1012.9 hPa | 0 mm | - | - | - |
| 1777078417 | 23.33° C | 63% | 1012.7 hPa | 0 mm | - | - | - |
| 1777078116 | 23.89° C | 62% | 1012.5 hPa | 0 mm | - | - | - |
| 1777077811 | 23.89° C | 61% | 1012.7 hPa | 0 mm | - | - | - |
| 1777077510 | 24.44° C | 60% | 1012.6 hPa | 0 mm | - | - | - |
| 1777077210 | 24.44° C | 58% | 1012.7 hPa | 0 mm | - | - | - |
| 1777076908 | 25° C | 58% | 1012.4 hPa | 0 mm | - | - | - |
| 1777076605 | 25° C | 58% | 1012.4 hPa | 0 mm | - | - | - |
| 1777076301 | 24.44° C | 57% | 1012.3 hPa | 0 mm | - | - | - |
| 1777075996 | 25° C | 59% | 1012.3 hPa | 0 mm | - | - | - |
| 1777075692 | 25° C | 58% | 1012.3 hPa | 0 mm | - | - | - |
| 1777075388 | 25.56° C | 58% | 1012.2 hPa | 0 mm | - | - | - |
| 1777075084 | 25.56° C | 56% | 1012.4 hPa | 0 mm | - | - | - |
| 1777074781 | 26.11° C | 55% | 1012.3 hPa | 0 mm | - | - | - |
| 1777074476 | 26.11° C | 55% | 1012.1 hPa | 0 mm | - | - | - |
| 1777074172 | 26.11° C | 55% | 1012.1 hPa | 0 mm | - | - | - |
| 1777073869 | 26.11° C | 54% | 1012.3 hPa | 0 mm | - | - | - |
| 1777073564 | 26.67° C | 54% | 1012 hPa | 0 mm | - | - | - |
| 1777073260 | 26.67° C | 54% | 1011.9 hPa | 0 mm | - | - | - |
* Rain latest hour (hover to see other rain measurements)
** Current wind speed in m/s (hover to see current wind gust speed)